ATLAS 5 CENTAUR DEB, 45474

Orbit data source: Space-Track

ATLAS 5 CENTAUR DEB, 45474 is space debris in HEO originally from a launch on Wed, 17 Oct 2018 UTC launched from the Air Force Eastern Test Range (AFETR). Debris objects in space refer to the collection of defunct objects orbiting the Earth. Examples of debris include non-operational satellites, rocket bodies, and fragments generated from explosions, collisions, or faulty payload assembly.

Loading next visibility...
Identifier
45474, 2018-079BW
Orbit
HEO
Country
Flag of USUS
Related business
Flag of USUnited Launch Alliance/Lockheed Martin (US)
Manufacturer
ULA Decatur
Mission
Spacecraft
Bus & Motor
Unknown
Mass
Unknown
Launch date (UTC)
2018-10-17 (7 years ago)
Launch vehicle
Unknown
Launch site
Air Force Eastern Test Range (AFETR)
Object type
Payload
Rocket body
Debris
Shape & HBR
Unknown shape, 1.1 m
Radar Cross Section
RCS unknown

Expand to show TLE details & history
Last TLE update: 1 day ago

TLE from 1 day ago
0 ATLAS 5 CENTAUR DEB
1 45474U 18079BW  26062.18837038 -.00000120  00000-0  00000-0 0  9997
2 45474  12.9357  70.4641 4488933 239.0376  69.3486  1.74194968 41149
Epoch: 2026-03-03T04:31Z
TLE epoch observation values (Epoch: 2026-03-03T04:31:15.200Z)
Latitude
Longitude
-158.21533°
Altitude
23,899.416 km
Speed
3.559 km/s
True Right ascension
04h 42m 16s
True Declination
0° 00' 00"
Sunlit
Object was in daylight at epoch
Visualization orbit readout
Latitude
Unknown
Longitude
Unknown
Altitude
Unknown
Speed
Unknown
Apparent Right ascension
Unknown
Apparent Declination
Unknown
Sunlit
N/A
Visualization observer readout
Local Sidereal Time
09:10:23
Azimuth
Unknown
Elevation
Unknown
Doppler factor
Unknown
Orbital elements
Apogee altitude
35,899.486 km
Perigee altitude
9,702.744 km
Semi-major axis
29,179.252 km
Eccentricity
0.44889
Inclination
12.9357°
RAAN
70.4641°
Arg. of periapsis
239.0376°
True anomaly
121.0309°
Mean anomaly
69.3486°
Eccentric anomaly
94.97153°
Mean motion
0.43544 °/min
Orbital period
826.74 mins
BSTAR
0
Loading maneuver chart data...
Computing Atmospheric mass density...

Documentation

Showing up to 5 results
|